Location: Brest
(52.1000°N, 23.7000°E)
Time: 00:45:31
(UTC+03:00)

Genesis I - Visible Passes

Search period start: 29 March 2017 00:00
Search period end: 08 April 2017 00:00
Orbit: 510 x 521 km, 64.5° (Epoch: 27 March)

Date Brightness Start Highest point End Pass type
(mag) Time Alt. Az. Time Alt. Az. Time Alt. Az.
29 Mar 3.7 04:16:24 56° N 04:16:24 56° N 04:19:44 10° NE visible
29 Mar 5.2 05:51:22 11° WNW 05:54:11 20° NNW 05:57:08 10° NNE visible
30 Mar 4.1 04:01:01 47° NNE 04:01:01 47° NNE 04:04:03 10° NE visible
30 Mar 5.2 05:35:59 12° WNW 05:38:30 19° NNW 05:41:26 10° NNE visible
31 Mar 4.4 03:45:36 41° NNE 03:45:36 41° NNE 03:48:20 10° NE visible
31 Mar 5.3 05:20:34 13° WNW 05:22:48 19° NNW 05:25:44 10° NNE visible
01 Apr 4.7 03:30:09 35° NNE 03:30:09 35° NNE 03:32:38 10° NE visible
01 Apr 5.3 05:05:07 14° WNW 05:07:07 19° NNW 05:10:01 10° NNE visible
02 Apr 5.0 03:14:40 31° NNE 03:14:40 31° NNE 03:16:56 10° NE visible
02 Apr 5.3 04:49:38 15° NW 04:51:25 19° NNW 04:54:18 10° NNE visible
03 Apr 5.2 02:59:10 28° NNE 02:59:10 28° NNE 03:01:13 10° NE visible
03 Apr 5.3 04:34:08 15° NW 04:35:43 19° NNW 04:38:35 10° NNE visible
03 Apr 5.8 06:12:41 10° NNW 06:14:48 14° N 06:16:56 10° NE visible
04 Apr 5.3 02:43:38 26° NNE 02:43:38 26° NNE 02:45:30 10° NE visible
04 Apr 5.4 04:18:36 16° NW 04:20:01 19° NNW 04:22:53 10° NNE visible
04 Apr 5.8 05:57:00 10° NNW 05:59:07 14° N 06:01:14 10° NE visible
05 Apr 5.5 02:28:05 24° NNE 02:28:05 24° NNE 02:29:47 10° NE visible
05 Apr 5.4 04:03:02 16° NW 04:04:19 19° NNW 04:07:10 10° NNE visible
05 Apr 5.9 05:41:18 10° NNW 05:43:25 14° N 05:45:32 10° NE visible
06 Apr 5.5 02:12:28 22° NNE 02:12:28 22° NNE 02:14:04 10° NE visible
06 Apr 5.5 03:47:27 16° NW 03:48:37 18° NNW 03:51:27 10° NNE visible
06 Apr 5.9 05:25:35 10° NNW 05:27:43 14° N 05:29:50 10° NE visible
07 Apr 5.6 01:56:50 22° NNE 01:56:50 22° NNE 01:58:20 10° NE visible
07 Apr 5.5 03:31:48 16° NW 03:32:55 18° NNW 03:35:44 10° NNE visible
07 Apr 6.0 05:09:53 10° NNW 05:12:00 14° N 05:14:09 10° NE visible
